| time (UTC) | temp F | wind direction | speed knots | gust knots | rain 1hr in | rain 24hr in | rain mn in | humidity % | barometer mb |
| 20260505093007 | 51 | 143 | 0.0 | 0.0 | 0.00 | 0.00 | 0.00 | 86 | 1015.7 |
| 20260505092504 | 51 | 142 | 0.0 | 0.0 | 0.00 | 0.00 | 0.00 | 85 | 1015.8 |
| 20260505092001 | 51 | 143 | 0.0 | 0.0 | 0.00 | 0.00 | 0.00 | 85 | 1015.5 |
| 20260505091458 | 51 | 143 | 0.0 | 0.0 | 0.00 | 0.00 | 0.00 | 84 | 1015.6 |
| 20260505090956 | 51 | 143 | 0.0 | 0.0 | 0.00 | 0.00 | 0.00 | 83 | 1015.8 |
| 20260505090454 | 52 | 143 | 0.0 | 0.0 | 0.00 | 0.00 | 0.00 | 83 | 1015.5 |
| 20260505085951 | 52 | 143 | 0.0 | 0.0 | 0.00 | 0.00 | 0.00 | 82 | 1015.7 |
| 20260505085449 | 52 | 143 | 0.0 | 0.0 | 0.00 | 0.00 | 0.00 | 81 | 1015.4 |
| 20260505084947 | 53 | 143 | 0.0 | 0.0 | 0.00 | 0.00 | 0.00 | 81 | 1015.2 |
| 20260505084445 | 53 | 143 | 0.0 | 0.0 | 0.00 | 0.00 | 0.00 | 79 | 1015.4 |
| 20260505083943 | 53 | 143 | 0.0 | 0.0 | 0.00 | 0.00 | 0.00 | 78 | 1015.3 |
| 20260505083440 | 54 | 143 | 0.0 | 0.0 | 0.00 | 0.00 | 0.00 | 78 | 1015.3 |
| 20260505082936 | 54 | 143 | 0.0 | 0.0 | 0.00 | 0.00 | 0.00 | 76 | 1015.3 |
| 20260505082432 | 54 | 143 | 0.0 | 0.0 | 0.00 | 0.00 | 0.00 | 76 | 1015.2 |
| 20260505081929 | 55 | 143 | 0.0 | 0.0 | 0.00 | 0.00 | 0.00 | 74 | 1014.9 |
| 20260505081426 | 55 | 143 | 0.0 | 0.0 | 0.00 | 0.00 | 0.00 | 75 | 1015.0 |
| 20260505080922 | 56 | 143 | 0.0 | 0.0 | 0.00 | 0.00 | 0.00 | 74 | 1015.0 |
| 20260505080419 | 56 | 143 | 0.0 | 0.0 | 0.00 | 0.00 | 0.00 | 75 | 1014.9 |
| 20260505075914 | 56 | 143 | 0.0 | 0.0 | 0.00 | 0.00 | 0.00 | 74 | 1014.9 |
| 20260505075411 | 56 | 143 | 0.0 | 0.0 | 0.00 | 0.00 | 0.00 | 73 | 1014.7 |
| 20260505074909 | 57 | 143 | 0.0 | 0.0 | 0.00 | 0.00 | 0.00 | 73 | 1014.9 |
| 20260505074406 | 57 | 143 | 0.0 | 0.9 | 0.00 | 0.00 | 0.00 | 72 | 1014.8 |
| 20260505073903 | 58 | 143 | 0.0 | 0.9 | 0.00 | 0.00 | 0.00 | 71 | 1014.8 |
| 20260505073401 | 58 | 173 | 0.9 | 1.7 | 0.00 | 0.00 | 0.00 | 71 | 1014.8 |
| 20260505072858 | 57 | 140 | 0.0 | 0.9 | 0.00 | 0.00 | 0.00 | 71 | 1014.9 |
| 20260505072353 | 57 | 144 | 0.9 | 0.9 | 0.00 | 0.00 | 0.00 | 71 | 1014.7 |
| 20260505071850 | 57 | 152 | 0.9 | 0.9 | 0.00 | 0.00 | 0.00 | 72 | 1014.8 |
| 20260505071346 | 57 | 158 | 0.0 | 0.9 | 0.00 | 0.00 | 0.00 | 72 | 1014.9 |
| 20260505070845 | 57 | 133 | 0.0 | 0.9 | 0.00 | 0.00 | 0.00 | 74 | 1014.9 |
| 20260505070341 | 56 | 159 | 0.9 | 1.7 | 0.00 | 0.00 | 0.00 | 76 | 1015.1 |
| 20260505065836 | 55 | 135 | 0.0 | 0.9 | 0.00 | 0.00 | 0.00 | 78 | 1014.9 |
| 20260505065333 | 55 | 136 | 0.0 | 0.9 | 0.00 | 0.00 | 0.00 | 79 | 1015.1 |
| 20260505064830 | 55 | 135 | 0.0 | 0.9 | 0.00 | 0.00 | 0.00 | 80 | 1015.0 |
| 20260505064327 | 54 | 106 | 0.0 | 0.9 | 0.00 | 0.00 | 0.00 | 82 | 1014.9 |
| 20260505063825 | 54 | 105 | 0.0 | 0.9 | 0.00 | 0.00 | 0.00 | 83 | 1014.9 |
| 20260505063321 | 54 | 105 | 0.0 | 0.0 | 0.00 | 0.00 | 0.00 | 82 | 1015.1 |
| 20260505062817 | 54 | 105 | 0.0 | 0.0 | 0.00 | 0.00 | 0.00 | 82 | 1014.8 |
| 20260505062315 | 54 | 104 | 0.0 | 0.0 | 0.00 | 0.00 | 0.00 | 81 | 1014.9 |
| 20260505061812 | 54 | 104 | 0.0 | 0.0 | 0.00 | 0.00 | 0.00 | 81 | 1014.9 |
| 20260505061310 | 55 | 105 | 0.0 | 0.0 | 0.00 | 0.00 | 0.00 | 81 | 1014.8 |
| 20260505060807 | 55 | 105 | 0.0 | 0.0 | 0.00 | 0.00 | 0.00 | 81 | 1014.9 |
| 20260505060304 | 55 | 105 | 0.0 | 0.0 | 0.00 | 0.00 | 0.00 | 80 | 1014.8 |
| 20260505055759 | 55 | 114 | 0.0 | 0.0 | 0.00 | 0.00 | 0.00 | 79 | 1014.7 |
| 20260505055256 | 55 | 114 | 0.0 | 0.0 | 0.00 | 0.00 | 0.00 | 78 | 1014.7 |
| 20260505054753 | 56 | 114 | 0.0 | 0.0 | 0.00 | 0.00 | 0.00 | 76 | 1015.0 |
| 20260505054251 | 57 | 114 | 0.0 | 0.0 | 0.00 | 0.00 | 0.00 | 75 | 1014.8 |
| 20260505053749 | 57 | 114 | 0.0 | 0.0 | 0.00 | 0.00 | 0.00 | 74 | 1015.0 |
| 20260505053245 | 58 | 102 | 0.0 | 0.0 | 0.00 | 0.00 | 0.00 | 73 | 1014.9 |
| 20260505052743 | 58 | 102 | 0.0 | 0.0 | 0.00 | 0.00 | 0.00 | 72 | 1014.8 |
| 20260505052239 | 58 | 93 | 0.0 | 0.0 | 0.00 | 0.00 | 0.00 | 73 | 1014.7 |
| 20260505051736 | 57 | 124 | 1.7 | 1.7 | 0.00 | 0.00 | 0.00 | 74 | 1014.8 |
| 20260505051234 | 57 | 160 | 0.0 | 0.0 | 0.00 | 0.00 | 0.00 | 76 | 1014.5 |
| 20260505050732 | 57 | 160 | 0.0 | 0.0 | 0.00 | 0.00 | 0.00 | 76 | 1014.7 |
| 20260505050230 | 57 | 160 | 0.0 | 0.0 | 0.00 | 0.00 | 0.00 | 76 | 1014.8 |
| 20260505041700 | 58 | 160 | 0.0 | 0.9 | 0.00 | 0.00 | 0.00 | 75 | 1014.7 |
| 20260505041157 | 58 | 160 | 0.0 | 0.9 | 0.00 | 0.00 | 0.00 | 74 | 1014.5 |
| 20260505040654 | 58 | 159 | 0.9 | 0.9 | 0.00 | 0.00 | 0.00 | 74 | 1014.7 |
| 20260505040151 | 58 | 159 | 0.0 | 0.0 | 0.00 | 0.00 | 0.00 | 73 | 1014.4 |
| 20260505035648 | 58 | 159 | 0.0 | 0.0 | 0.00 | 0.00 | 0.00 | 73 | 1014.5 |
| 20260505035144 | 58 | 159 | 0.0 | 0.9 | 0.00 | 0.00 | 0.00 | 73 | 1014.7 |
| 20260505034641 | 59 | 159 | 0.0 | 0.0 | 0.00 | 0.00 | 0.00 | 71 | 1014.7 |
| 20260505034138 | 59 | 159 | 0.0 | 0.9 | 0.00 | 0.00 | 0.00 | 70 | 1014.8 |
| 20260505033634 | 59 | 159 | 0.0 | 0.0 | 0.00 | 0.00 | 0.00 | 69 | 1014.5 |
| 20260505033133 | 60 | 159 | 0.0 | 0.9 | 0.00 | 0.00 | 0.00 | 68 | 1014.7 |
| 20260505032630 | 60 | 159 | 0.9 | 0.9 | 0.00 | 0.00 | 0.00 | 68 | 1014.7 |
| 20260505032126 | 60 | 158 | 0.0 | 0.9 | 0.00 | 0.00 | 0.00 | 69 | 1014.8 |
| 20260505031624 | 59 | 158 | 0.0 | 0.0 | 0.00 | 0.00 | 0.00 | 70 | 1014.9 |
| 20260505031120 | 60 | 158 | 0.0 | 0.0 | 0.00 | 0.00 | 0.00 | 68 | 1014.7 |
| 20260505030617 | 60 | 158 | 0.0 | 0.0 | 0.00 | 0.00 | 0.00 | 68 | 1014.8 |
| 20260505030113 | 61 | 158 | 0.0 | 0.0 | 0.00 | 0.00 | 0.00 | 67 | 1014.9 |
| 20260505025608 | 61 | 158 | 0.0 | 0.9 | 0.00 | 0.00 | 0.00 | 67 | 1015.0 |
| 20260505025108 | 61 | 158 | 0.0 | 0.0 | 0.00 | 0.00 | 0.00 | 67 | 1014.9 |
| 20260505024604 | 61 | 158 | 0.0 | 0.9 | 0.00 | 0.00 | 0.00 | 67 | 1014.8 |
| 20260505024102 | 61 | 157 | 0.9 | 0.9 | 0.00 | 0.00 | 0.00 | 68 | 1015.2 |
| 20260505023559 | 61 | 148 | 0.0 | 0.0 | 0.00 | 0.00 | 0.00 | 68 | 1014.8 |
| 20260505023057 | 61 | 148 | 0.0 | 0.9 | 0.00 | 0.00 | 0.00 | 68 | 1014.7 |
| 20260505022554 | 61 | 148 | 0.0 | 0.0 | 0.00 | 0.00 | 0.00 | 67 | 1014.9 |
| 20260505022051 | 62 | 148 | 0.0 | 0.0 | 0.00 | 0.00 | 0.00 | 67 | 1015.0 |
| 20260505021547 | 62 | 148 | 0.0 | 0.9 | 0.00 | 0.00 | 0.00 | 66 | 1014.9 |
| 20260505021044 | 63 | 148 | 0.0 | 0.9 | 0.00 | 0.00 | 0.00 | 65 | 1014.9 |
| 20260505020544 | 63 | 148 | 0.0 | 0.9 | 0.00 | 0.00 | 0.00 | 63 | 1014.7 |
| 20260505020041 | 63 | 148 | 0.0 | 0.9 | 0.00 | 0.00 | 0.00 | 62 | 1014.7 |
| 20260505015538 | 63 | 119 | 0.9 | 0.9 | 0.00 | 0.00 | 0.00 | 61 | 1014.7 |
| 20260505015035 | 64 | 135 | 0.0 | 0.9 | 0.00 | 0.00 | 0.00 | 61 | 1014.7 |
| 20260505014532 | 64 | 113 | 0.0 | 0.9 | 0.00 | 0.00 | 0.00 | 60 | 1014.5 |
| 20260505014029 | 64 | 87 | 0.9 | 1.7 | 0.00 | 0.00 | 0.00 | 61 | 1014.5 |
| 20260505013526 | 64 | 118 | 0.0 | 1.7 | 0.00 | 0.00 | 0.00 | 62 | 1014.7 |
| 20260505013023 | 64 | 121 | 0.0 | 0.0 | 0.00 | 0.00 | 0.00 | 61 | 1014.7 |
| 20260505012522 | 65 | 121 | 0.0 | 0.9 | 0.00 | 0.00 | 0.00 | 59 | 1014.4 |
| 20260505012018 | 65 | 30 | 0.0 | 0.9 | 0.00 | 0.00 | 0.00 | 58 | 1014.4 |
| 20260505011513 | 65 | 139 | 0.9 | 1.7 | 0.00 | 0.00 | 0.00 | 59 | 1014.5 |
| 20260505011011 | 65 | 132 | 0.0 | 0.9 | 0.00 | 0.00 | 0.00 | 58 | 1014.2 |
| 20260505010506 | 66 | 131 | 0.0 | 0.0 | 0.00 | 0.00 | 0.00 | 56 | 1014.2 |
| 20260505010003 | 67 | 130 | 0.0 | 0.0 | 0.00 | 0.00 | 0.00 | 55 | 1014.1 |
| 20260505005459 | 67 | 127 | 0.9 | 0.9 | 0.00 | 0.00 | 0.00 | 54 | 1013.9 |
| 20260505004957 | 67 | 121 | 0.0 | 1.7 | 0.00 | 0.00 | 0.00 | 54 | 1014.1 |
| 20260505004454 | 68 | 131 | 0.0 | 0.0 | 0.00 | 0.00 | 0.00 | 52 | 1013.9 |
| 20260505003951 | 69 | 130 | 0.0 | 0.9 | 0.00 | 0.00 | 0.00 | 50 | 1014.0 |
| 20260505003448 | 69 | 132 | 0.0 | 0.9 | 0.00 | 0.00 | 0.00 | 49 | 1014.1 |
| 20260505002944 | 70 | 133 | 0.0 | 1.7 | 0.00 | 0.00 | 0.00 | 48 | 1014.0 |
| 20260505002440 | 70 | 113 | 0.0 | 1.7 | 0.00 | 0.00 | 0.00 | 48 | 1013.9 |
| 20260505001939 | 71 | 153 | 0.0 | 0.0 | 0.00 | 0.00 | 0.00 | 48 | 1013.9 |
| 20260505001436 | 71 | 189 | 1.7 | 2.6 | 0.00 | 0.00 | 0.00 | 45 | 1013.9 |
| 20260505000933 | 71 | 132 | 0.0 | 0.9 | 0.00 | 0.00 | 0.00 | 47 | 1013.9 |
| 20260505000431 | 71 | 122 | 0.0 | 1.7 | 0.00 | 0.00 | 0.00 | 48 | 1013.9 |
| 20260504235927 | 71 | 143 | 0.9 | 3.5 | 0.00 | 0.00 | 0.00 | 46 | 1014.0 |
| 20260504235425 | 71 | 158 | 0.9 | 0.9 | 0.00 | 0.00 | 0.00 | 48 | 1013.9 |
| 20260504234921 | 72 | 127 | 0.0 | 1.7 | 0.00 | 0.00 | 0.00 | 49 | 1013.9 |
| 20260504234419 | 73 | 92 | 1.7 | 1.7 | 0.00 | 0.00 | 0.00 | 47 | 1013.9 |
| 20260504233915 | 73 | 69 | 0.9 | 1.7 | 0.00 | 0.00 | 0.00 | 47 | 1013.6 |
| 20260504233411 | 73 | 134 | 0.0 | 0.0 | 0.00 | 0.00 | 0.00 | 48 | 1013.6 |
| 20260504232908 | 74 | 135 | 0.0 | 0.9 | 0.00 | 0.00 | 0.00 | 46 | 1013.8 |
| 20260504232404 | 74 | 158 | 0.9 | 1.7 | 0.00 | 0.00 | 0.00 | 42 | 1013.7 |
| 20260504231901 | 74 | 55 | 0.9 | 1.7 | 0.00 | 0.00 | 0.00 | 44 | 1013.6 |
| 20260504231358 | 74 | 153 | 1.7 | 1.7 | 0.00 | 0.00 | 0.00 | 43 | 1013.7 |
| 20260504230854 | 74 | 149 | 0.9 | 3.5 | 0.00 | 0.00 | 0.00 | 43 | 1013.9 |
| 20260504230352 | 74 | 145 | 0.0 | 0.9 | 0.00 | 0.00 | 0.00 | 41 | 1013.6 |
| 20260504225850 | 74 | 136 | 0.0 | 0.9 | 0.00 | 0.00 | 0.00 | 42 | 1013.6 |
| 20260504225346 | 75 | 83 | 0.9 | 1.7 | 0.00 | 0.00 | 0.00 | 41 | 1013.8 |
| 20260504224844 | 74 | 102 | 0.9 | 1.7 | 0.00 | 0.00 | 0.00 | 40 | 1013.6 |
| 20260504224341 | 75 | 131 | 0.9 | 3.5 | 0.00 | 0.00 | 0.00 | 39 | 1013.8 |
| 20260504223837 | 75 | 136 | 0.9 | 2.6 | 0.00 | 0.00 | 0.00 | 39 | 1013.8 |
| 20260504223333 | 75 | 127 | 0.0 | 0.9 | 0.00 | 0.00 | 0.00 | 37 | 1013.8 |
| 20260504222829 | 75 | 170 | 0.9 | 1.7 | 0.00 | 0.00 | 0.00 | 37 | 1013.9 |
| 20260504222327 | 76 | 233 | 2.6 | 3.5 | 0.00 | 0.00 | 0.00 | 35 | 1013.9 |
| 20260504221825 | 76 | 148 | 0.0 | 7.8 | 0.00 | 0.00 | 0.00 | 33 | 1013.7 |
| 20260504221321 | 77 | 143 | 0.9 | 5.2 | 0.00 | 0.00 | 0.00 | 34 | 1013.7 |
| 20260504220818 | 77 | 155 | 0.9 | 7.0 | 0.00 | 0.00 | 0.00 | 32 | 1013.9 |
| 20260504220315 | 78 | 204 | 2.6 | 7.8 | 0.00 | 0.00 | 0.00 | 32 | 1013.6 |
| 20260504215813 | 79 | 136 | 1.7 | 3.5 | 0.00 | 0.00 | 0.00 | 31 | 1013.8 |
| 20260504215309 | 78 | 208 | 1.7 | 2.6 | 0.00 | 0.00 | 0.00 | 34 | 1013.9 |
| 20260504214805 | 78 | 131 | 0.0 | 2.6 | 0.00 | 0.00 | 0.00 | 32 | 1013.8 |
| 20260504214302 | 78 | 29 | 3.5 | 5.2 | 0.00 | 0.00 | 0.00 | 37 | 1013.7 |
| 20260504213758 | 78 | 239 | 1.7 | 7.0 | 0.00 | 0.00 | 0.00 | 36 | 1014.1 |
| 20260504213254 | 78 | 256 | 2.6 | 3.5 | 0.00 | 0.00 | 0.00 | 37 | 1013.8 |
| 20260504212752 | 79 | 172 | 0.9 | 7.8 | 0.00 | 0.00 | 0.00 | 37 | 1014.1 |
| 20260504212248 | 78 | 211 | 3.5 | 11.3 | 0.00 | 0.00 | 0.00 | 36 | 1014.1 |
| 20260504211745 | 78 | 228 | 5.2 | 7.0 | 0.00 | 0.00 | 0.00 | 37 | 1014.1 |
| 20260504211241 | 78 | 208 | 2.6 | 3.5 | 0.00 | 0.00 | 0.00 | 37 | 1014.0 |
| 20260504210739 | 78 | 146 | 0.9 | 7.0 | 0.00 | 0.00 | 0.00 | 37 | 1014.2 |
| 20260504210236 | 79 | 216 | 4.3 | 5.2 | 0.00 | 0.00 | 0.00 | 37 | 1014.3 |
| 20260504205733 | 79 | 147 | 1.7 | 5.2 | 0.00 | 0.00 | 0.00 | 38 | 1014.1 |
| 20260504205231 | 80 | 212 | 0.9 | 5.2 | 0.00 | 0.00 | 0.00 | 37 | 1014.2 |
| 20260504204729 | 79 | 208 | 2.6 | 2.6 | 0.00 | 0.00 | 0.00 | 40 | 1014.2 |
| 20260504204227 | 78 | 142 | 1.7 | 7.0 | 0.00 | 0.00 | 0.00 | 38 | 1014.7 |
| 20260504203726 | 78 | 211 | 0.9 | 5.2 | 0.00 | 0.00 | 0.00 | 39 | 1014.5 |
| 20260504203223 | 78 | 245 | 1.7 | 3.5 | 0.00 | 0.00 | 0.00 | 38 | 1014.5 |
| 20260504202723 | 78 | 220 | 4.3 | 7.0 | 0.00 | 0.00 | 0.00 | 37 | 1014.4 |
| 20260504202221 | 77 | 136 | 0.9 | 0.9 | 0.00 | 0.00 | 0.00 | 41 | 1014.8 |
| 20260504201718 | 77 | 95 | 0.9 | 2.6 | 0.00 | 0.00 | 0.00 | 41 | 1014.8 |
| 20260504201215 | 77 | 154 | 0.9 | 1.7 | 0.00 | 0.00 | 0.00 | 40 | 1014.7 |
| 20260504200712 | 77 | 66 | 0.9 | 2.6 | 0.00 | 0.00 | 0.00 | 43 | 1014.8 |
| 20260504200208 | 77 | 130 | 0.9 | 6.1 | 0.00 | 0.00 | 0.00 | 42 | 1014.9 |
| 20260504195705 | 77 | 259 | 4.3 | 7.0 | 0.00 | 0.00 | 0.00 | 39 | 1015.1 |
| 20260504195201 | 77 | 341 | 0.9 | 3.5 | 0.00 | 0.00 | 0.00 | 41 | 1015.1 |
| 20260504194658 | 77 | 249 | 1.7 | 5.2 | 0.00 | 0.00 | 0.00 | 41 | 1015.1 |
| 20260504194153 | 77 | 147 | 0.9 | 9.6 | 0.00 | 0.00 | 0.00 | 44 | 1015.1 |
| 20260504193650 | 77 | 211 | 1.7 | 2.6 | 0.00 | 0.00 | 0.00 | 42 | 1015.1 |
| 20260504193148 | 77 | 172 | 1.7 | 7.0 | 0.00 | 0.00 | 0.00 | 40 | 1015.2 |
| 20260504192646 | 77 | 137 | 0.9 | 3.5 | 0.00 | 0.00 | 0.00 | 46 | 1015.6 |
| 20260504192144 | 77 | 178 | 1.7 | 2.6 | 0.00 | 0.00 | 0.00 | 40 | 1015.5 |
| 20260504191642 | 76 | 194 | 0.9 | 5.2 | 0.00 | 0.00 | 0.00 | 41 | 1015.8 |
| 20260504191138 | 76 | 227 | 3.5 | 7.0 | 0.00 | 0.00 | 0.00 | 41 | 1015.8 |
| 20260504190634 | 76 | 25 | 2.6 | 3.5 | 0.00 | 0.00 | 0.00 | 42 | 1015.7 |
| 20260504190131 | 76 | 197 | 0.9 | 7.0 | 0.00 | 0.00 | 0.00 | 42 | 1015.8 |
| 20260504185627 | 76 | 194 | 2.6 | 2.6 | 0.00 | 0.00 | 0.00 | 40 | 1015.7 |
| 20260504185124 | 75 | 149 | 0.9 | 3.5 | 0.00 | 0.00 | 0.00 | 43 | 1015.9 |
| 20260504184620 | 76 | 219 | 1.7 | 3.5 | 0.00 | 0.00 | 0.00 | 40 | 1016.0 |
| 20260504184115 | 75 | 137 | 1.7 | 6.1 | 0.00 | 0.00 | 0.00 | 41 | 1016.1 |
| 20260504183613 | 76 | 225 | 5.2 | 7.0 | 0.00 | 0.00 | 0.00 | 39 | 1016.0 |
| 20260504183110 | 76 | 100 | 2.6 | 7.0 | 0.00 | 0.00 | 0.00 | 41 | 1016.3 |
| 20260504182607 | 75 | 184 | 2.6 | 6.1 | 0.00 | 0.00 | 0.00 | 41 | 1016.4 |
| 20260504182105 | 75 | 65 | 0.0 | 2.6 | 0.00 | 0.00 | 0.00 | 43 | 1016.4 |
| 20260504181602 | 75 | 175 | 2.6 | 5.2 | 0.00 | 0.00 | 0.00 | 41 | 1016.4 |
| 20260504181059 | 75 | 166 | 1.7 | 5.2 | 0.00 | 0.00 | 0.00 | 41 | 1016.5 |
| 20260504180558 | 75 | 171 | 1.7 | 3.5 | 0.00 | 0.00 | 0.00 | 40 | 1016.4 |
| 20260504180057 | 75 | 112 | 0.9 | 1.7 | 0.00 | 0.00 | 0.00 | 42 | 1016.4 |
| 20260504175554 | 75 | 118 | 1.7 | 2.6 | 0.00 | 0.00 | 0.00 | 42 | 1016.7 |
| 20260504175050 | 74 | 147 | 1.7 | 3.5 | 0.00 | 0.00 | 0.00 | 42 | 1016.5 |
| 20260504174549 | 74 | 208 | 2.6 | 5.2 | 0.00 | 0.00 | 0.00 | 42 | 1016.7 |
| 20260504174045 | 74 | 148 | 1.7 | 1.7 | 0.00 | 0.00 | 0.00 | 43 | 1016.7 |
| 20260504173542 | 74 | 246 | 3.5 | 5.2 | 0.00 | 0.00 | 0.00 | 42 | 1016.8 |
| 20260504173039 | 73 | 217 | 2.6 | 3.5 | 0.00 | 0.00 | 0.00 | 42 | 1016.7 |
| 20260504172535 | 72 | 178 | 3.5 | 5.2 | 0.00 | 0.00 | 0.00 | 42 | 1016.8 |
| 20260504172032 | 73 | 210 | 4.3 | 7.8 | 0.00 | 0.00 | 0.00 | 40 | 1016.9 |
| 20260504171529 | 73 | 119 | 0.9 | 0.9 | 0.00 | 0.00 | 0.00 | 42 | 1016.9 |
| 20260504171026 | 72 | 93 | 3.5 | 7.8 | 0.00 | 0.00 | 0.00 | 41 | 1017.1 |
| 20260504170522 | 72 | 193 | 1.7 | 3.5 | 0.00 | 0.00 | 0.00 | 43 | 1017.2 |
| 20260504160442 | 70 | 233 | 0.9 | 1.7 | 0.00 | 0.00 | 0.00 | 44 | 1018.1 |
| 20260504150906 | 66 | 115 | 0.0 | 1.7 | 0.00 | 0.00 | 0.00 | 50 | 1018.8 |
| 20260504150402 | 65 | 105 | 0.9 | 3.5 | 0.00 | 0.00 | 0.00 | 52 | 1019.0 |
| 20260504141332 | 62 | 229 | 0.9 | 0.9 | 0.00 | 0.00 | 0.00 | 57 | 1019.5 |
| 20260504140829 | 61 | 111 | 0.0 | 1.7 | 0.00 | 0.00 | 0.00 | 61 | 1019.6 |
| 20260504140324 | 61 | 151 | 0.9 | 1.7 | 0.00 | 0.00 | 0.00 | 56 | 1019.5 |
| 20260504130753 | 56 | 145 | 0.0 | 0.9 | 0.00 | 0.00 | 0.00 | 68 | 1019.8 |
| 20260504130249 | 55 | 88 | 0.0 | 0.9 | 0.00 | 0.00 | 0.00 | 69 | 1019.7 |
| 20260504120213 | 47 | 107 | 0.0 | 0.0 | 0.00 | 0.00 | 0.00 | 87 | 1019.0 |
| 20260504110640 | 43 | 142 | 0.0 | 0.0 | 0.00 | 0.00 | 0.00 | 92 | 1018.5 |
| 20260504110136 | 43 | 142 | 0.0 | 0.0 | 0.00 | 0.00 | 0.00 | 92 | 1018.5 |
| 20260504100603 | 43 | 142 | 0.0 | 0.0 | 0.00 | 0.00 | 0.00 | 91 | 1018.7 |